Flag for Japan

Past Weather in 36°24'09"N, 138°16'40"E, Japan — Yesterday and Last 2 Weeks

Now
72 °F

Fog.


Feels Like: 67 °F
Forecast: 94 / 69 °F
Wind: 2 mph from South

Location: Nagano

Current Time: Aug 10, 2020 at 5:31:35 am

Latest Report: Aug 10, 2020 at 4:00 am


Visibility: 3 mi

Pressure: 29.92 "Hg

Humidity: 96%

Dew Point: 71 °F

Location of 36°24'09"N, 138°16'40"ELocation

Past Weather in 36°24'09"N, 138°16'40"E — Graph

°F

36°24'09"N, 138°16'40"E Temperature Yesterday

Maximum temperature yesterday: 84 °F (at 2:00 pm)
Minimum temperature yesterday: 74 °F (at 11:00 pm)
Average temperature yesterday: 78 °F

High & Low Weather Summary for the Past Weeks

 TemperatureHumidityPressure
High92 °F (Aug 6, 3:00 pm)100% (Jul 26, 4:00 am)30.05 "Hg (Jul 26, 4:00 am)
Low68 °F (Jul 27, 4:00 am)50% (Aug 2, 1:00 pm)29.71 "Hg (Aug 8, 1:00 pm)
Average77 °F81%29.88 "Hg
* Reported Jul 26 4:00 am — Aug 10 4:00 am, 36°24'09"N, 138°16'40"E. Weather by CustomWeather, © 2020

Note: Actual official high and low records may vary slightly from our data, if they occured in-between our weather recording intervals... More about our weather records

36°24'09"N, 138°16'40"E Weather History for the Previous 24 Hours

Scroll right to see more
 ConditionsComfort  
Time TempWeatherWind HumidityBarometerVisibility
4:00 am
Mon, Aug 10
72 °FFog.2 mph96%29.92 "Hg3 mi
3:00 am73 °FFog.2 mph94%29.93 "Hg3 mi
2:00 am73 °FFog.2 mph94%29.91 "Hg3 mi
1:00 am73 °FFog.3 mph93%29.90 "Hg4 mi
12:00 am76 °FFog.3 mph86%29.90 "Hg5 mi
11:00 pm
Sun, Aug 9
74 °FFog.3 mph92%29.91 "Hg4 mi
10:00 pm76 °FFog.3 mph88%29.91 "Hg4 mi
9:00 pm77 °FMild.3 mph84%29.91 "Hg6 mi
8:00 pm77 °FFog.2 mph83%29.89 "Hg5 mi
7:00 pm80 °FFog.2 mph78%29.86 "Hg6 mi
6:00 pm81 °FSmoke.6 mph76%29.83 "Hg6 mi
5:00 pm83 °FSmoke.6 mph70%29.82 "Hg5 mi
4:00 pm84 °FWarm.5 mph71%29.81 "Hg5 mi
3:00 pm84 °FLight rain. Cloudy.6 mph65%29.80 "Hg4 mi
2:00 pm84 °FLight rain. Cloudy.2 mph64%29.80 "Hg5 mi
1:00 pm83 °FSmoke.1 mph64%29.80 "Hg4 mi
12:00 pm81 °FSmoke.1 mph70%29.81 "Hg4 mi
11:00 am79 °FWarm.1 mph77%29.83 "Hg3 mi
10:00 am77 °FLight rain. Cloudy.2 mph89%29.83 "Hg2 mi
9:00 am76 °FLight rain. Cloudy.1 mph84%29.81 "Hg2 mi
8:00 am76 °FMild.1 mph87%29.81 "Hg3 mi
7:00 am75 °FFog.No wind88%29.80 "Hg3 mi
6:00 am75 °FFog.No wind88%29.79 "Hg3 mi
5:00 am75 °FFog.1 mph89%29.79 "Hg3 mi
Weather by CustomWeather, © 2020

See weather overview